Weather History for CYZP - January, 2014

Change the Weather History Date:

Monday, January 13, 2014

  Actual Average Record
Temperature  
Mean Temperature 46 °F -  
Max Temperature 50 °F 44 °F 50 °F (2009)
Min Temperature 41 °F 36 °F 21 °F (2005)
Degree Days  
Heating Degree Days 20    
Moisture  
Dew Point 39 °F    
Average Humidity 83    
Maximum Humidity 100    
Minimum Humidity 62    
Precipitation  
Precipitation 0.00 in 0.40 in - ()
Sea Level Pressure  
Sea Level Pressure 30.12 in    
Wind  
Wind Speed 9 mph ()    
Max Wind Speed 18 mph    
Max Gust Speed 25 mph    
Visibility 9.0 miles    
Events Rain    
Averages and records for this station are not official NWS values.
T = Trace of Precipitation, MM = Missing Value Source: Averaged Metar Reports

Daily Weather History Graph

Daily Weather History Graph

Search for Another Location

Airport or City:

Trip Planner

Search our weather history database for the weather conditions in past years. The results will help you decide how hot, cold, wet, or windy it might be!

Date:

Astronomy

Jan. 13, 2014 Rise Set
Actual Time 8:55 AM PST 4:56 PM PST
Civil Twilight 8:14 AM PST 5:37 PM PST
Nautical Twilight 7:30 AM PST 6:21 PM PST
Astronomical Twilight 6:49 AM PST 7:03 PM PST
Moon 3:20 PM PST (1/13) 6:47 AM PST (1/13)
Length of Visible Light 9h 22m
Length of Day
8h 01m
Waxing Gibbous, 95% of the Moon is Illuminated
Jan 13
Waxing Gibbous
Jan 15
Full
Jan 23
Last Quarter
Jan 30
New
Feb 6
First Quarter

Hourly Weather History & Observations

Time (PST) Temp. Windchill Dew Point Humidity Pressure Visibility Wind Dir Wind Speed Gust Speed Precip Events Conditions
12:00 AM 44.6 °F 36.9 °F 41.0 °F 87% 29.80 in 9.0 mi West 18.4 mph 25.3 mph N/A   Mostly Cloudy
12:17 AM 44.6 °F 37.8 °F 42.8 °F 93% 29.83 in 9.0 mi WSW 15.0 mph - N/A   Overcast
12:20 AM 44.6 °F 37.8 °F 42.8 °F 93% 29.83 in 9.0 mi West 15.0 mph - N/A   Overcast
1:00 AM 45 °F - 40 °F 76% 29.86 in - SW 1.2 mph - -  
1:00 AM 44.6 °F 38.4 °F 39.2 °F 81% 29.87 in 9.0 mi WSW 12.7 mph - N/A   Mostly Cloudy
2:00 AM 44.6 °F 38.8 °F 39.2 °F 81% 29.92 in 9.0 mi WSW 11.5 mph 17.3 mph N/A   Mostly Cloudy
3:00 AM 44.6 °F 38.1 °F 39.2 °F 81% 29.97 in 9.0 mi WSW 13.8 mph - N/A   Overcast
4:00 AM 43 °F - 38 °F 75% 30.01 in - SW 2.3 mph - -  
4:00 AM 42.8 °F 38.0 °F 37.4 °F 81% 30.01 in 9.0 mi SW 8.1 mph - N/A   Mostly Cloudy
5:00 AM 42.8 °F 35.8 °F 37.4 °F 81% 30.06 in 9.0 mi WSW 13.8 mph - N/A   Mostly Cloudy
6:00 AM 42.8 °F 35.8 °F 37.4 °F 81% 30.10 in 9.0 mi WSW 13.8 mph - N/A   Clear
7:00 AM 43 °F - 36 °F 70% 30.11 in - West 2.3 mph - -  
7:00 AM 42.8 °F 36.2 °F 37.4 °F 81% 30.12 in 9.0 mi West 12.7 mph - N/A   Clear
8:00 AM 41.0 °F 38.0 °F 35.6 °F 81% 30.16 in 9.0 mi SE 4.6 mph - N/A   Clear
9:00 AM 41.0 °F 39.0 °F 35.6 °F 81% 30.19 in 9.0 mi SSE 3.5 mph - N/A   Overcast
10:00 AM 43 °F - 34 °F 62% 30.21 in - South 4.6 mph - -  
10:00 AM 42.8 °F 38.0 °F 33.8 °F 70% 30.22 in 9.0 mi South 8.1 mph - N/A   Overcast
11:00 AM 42.8 °F 38.0 °F 35.6 °F 76% 30.25 in 9.0 mi SSE 8.1 mph - N/A   Mostly Cloudy
12:00 PM 42.8 °F 37.0 °F 39.2 °F 87% 30.25 in 9.0 mi SE 10.4 mph - N/A   Mostly Cloudy
1:00 PM 44 °F - 37 °F 69% 30.23 in - South 3.5 mph - -  
1:00 PM 44.6 °F 40.7 °F 37.4 °F 76% 30.24 in 9.0 mi South 6.9 mph - N/A   Overcast
2:00 PM 44.6 °F 41.4 °F 37.4 °F 76% 30.25 in 9.0 mi South 5.8 mph - N/A   Overcast
3:00 PM 41.0 °F 35.8 °F 39.2 °F 93% 30.23 in 9.0 mi South 8.1 mph - N/A   Overcast
3:21 PM 42.8 °F 39.3 °F 37.4 °F 81% 30.24 in 9.0 mi SSE 5.8 mph - N/A Rain Light Rain
4:00 PM 42 °F - 38 °F 82% 30.23 in - SSE 2.3 mph - -  
4:00 PM 41.0 °F 37.1 °F 39.2 °F 93% 30.24 in 9.0 mi SSE 5.8 mph - N/A Rain Light Rain
5:00 PM 42.8 °F 38.0 °F 39.2 °F 87% 30.23 in 9.0 mi South 8.1 mph - N/A Rain Light Rain
6:00 PM 42.8 °F 38.6 °F 39.2 °F 87% 30.21 in 9.0 mi SSE 6.9 mph - N/A Rain Light Rain
6:45 PM 42.8 °F 40.1 °F 41.0 °F 93% 30.20 in 9.0 mi SSE 4.6 mph - N/A   Overcast
7:00 PM 43 °F - 41 °F 91% 30.17 in - SE 5.8 mph - -  
7:00 PM 42.8 °F 37.5 °F 41.0 °F 93% 30.19 in 9.0 mi SE 9.2 mph - N/A   Overcast
8:00 PM 42.8 °F 41.1 °F 42.8 °F 100% 30.19 in 9.0 mi ESE 3.5 mph - N/A   Overcast
9:00 PM 50.0 °F - 44.6 °F 82% 30.18 in 9.0 mi SSW 10.4 mph - N/A   Overcast
10:00 PM 48 °F - 45 °F 85% 30.17 in - South 5.8 mph - -  
10:00 PM 48.2 °F - 44.6 °F 87% 30.18 in 9.0 mi South 10.4 mph - N/A   Overcast
11:00 PM 50.0 °F - 44.6 °F 82% 30.19 in 9.0 mi South 10.4 mph 18.4 mph N/A   Overcast